[[{"header":{"parameterUnit":"m.s-1","parameterCategory":1,"la1":30.2991,"la2":30.254,"lo1":-89.0895,"lo2":-89.0444,"dy":0.0017,"dx":0.0017,"nx":28,"ny":28,"refTime":"2023-09-03T21:00:00:Z","depth":0,"parameterNumber":2,"parameterNumberName":"U-component_of_WINDS"},"data":[0,0,0,0,0,0,0,0,0,0,0,0,0,0,0,0,0,0,0,0,0,0,0,0,0,0,0,0,0,0,0,0,0,0,0,0,0,0,0,0,0,0,0,0,0,0,0,0,0,0,0,0,0,0,0,0,0,0,-4.2941,-4.2942,0,-4.3052,-4.3053,-4.3054,-4.3006,-4.3003,-4.3,-4.2998,-4.3112,-4.3118,-4.3123,0,0,0,0,0,0,0,0,0,0,0,0,0,-4.2689,-4.2694,-4.294,-4.2942,-4.2943,-4.3052,-4.3053,-4.3055,-4.3006,-4.3003,-4.3,-4.2997,-4.311,-4.3117,-4.3124,0,0,0,0,0,0,0,0,0,0,0,0,0,-4.2799,-4.2695,-4.294,-4.2932,-4.2933,-4.3051,-4.3053,-4.3055,-4.3007,-4.3003,-4.2999,-4.2995,-4.3108,-4.3116,-4.3125,-4.3258,0,0,-4.315,-4.3154,0,0,0,0,0,0,0,0,-4.2793,-4.2808,-4.2932,-4.2933,-4.2934,-4.3011,-4.3006,-4.3123,-4.3008,-4.2979,-4.2998,-4.2993,-4.3082,-4.3092,-4.3122,-4.3264,-4.3268,-4.3151,-4.3156,-4.316,-4.3162,0,0,0,0,0,0,0,-4.2785,-4.2803,-4.2984,-4.2934,-4.2935,-4.2924,-4.2935,-4.3028,-4.3052,-4.2981,-4.2978,-4.2992,-4.3082,-4.3114,-4.3124,-4.327,-4.3151,-4.3158,-4.3163,-4.3167,-4.353,-4.3534,0,0,0,0,0,0,-4.2777,-4.2797,-4.2981,-4.2988,-4.2852,-4.2932,-4.2944,-4.299,-4.3051,-4.3056,-4.2995,-4.2989,-4.3102,-4.3115,-4.3128,-4.329,-4.316,-4.3168,-4.3172,-4.3525,-4.3531,-4.3536,0,0,0,0,0,0,-4.2772,-4.2794,-4.2976,-4.2892,-4.2914,-4.2941,-4.2992,-4.2994,-4.3027,-4.3061,-4.3065,-4.3024,-4.3099,-4.3116,-4.3227,-4.3293,-4.3171,-4.3179,-4.352,-4.3527,-4.3534,-4.3613,0,0,0,0,0,0,-4.2765,-4.2793,-4.2842,-4.2893,-4.2919,-4.3072,-4.2996,-4.3,-4.3041,-4.3035,-4.3089,-4.3094,-4.3097,-4.3215,-4.3235,-4.3302,-4.3185,-4.3514,-4.3523,-4.3531,-4.3605,-4.3622,-4.3637,0,0,0,0,0,-4.2756,-4.286,-4.2845,-4.2868,-4.2982,-4.3076,-4.3091,-4.3092,-4.3047,-4.3098,-4.3121,-4.3093,-4.3283,-4.3226,-4.3249,-4.332,-4.351,-4.3521,-4.3531,-4.3597,-4.3619,-4.3636,0,0,0,0,0,0,-4.2815,-4.2866,-4.285,-4.2973,-4.3021,-4.3068,-4.3132,-4.3114,-4.3175,-4.3166,-4.3165,-4.3178,-4.3292,-4.3317,-4.3253,-4.3454,-4.339,-4.3405,-4.3433,-4.3453,-4.3469,-4.346,-4.3192,0,0,0,0,0,-4.2843,-4.2915,-4.2956,-4.306,-4.3085,-4.3105,-4.3146,-4.3143,-4.3192,-4.3212,-4.3243,-4.3292,-4.3363,-4.341,-4.3477,-4.3609,-4.3621,-4.3669,-4.3685,-4.3698,-4.3711,-4.3785,-4.3807,-4.357,-4.357,-4.357,0,0,-4.29,-4.2937,-4.2982,-4.3073,-4.311,-4.3185,-4.3122,-4.3204,-4.326,-4.3224,-4.3331,-4.3356,-4.3411,-4.3533,-4.3589,-4.3558,-4.378,-4.3711,-4.3722,-4.3727,-4.3798,-4.382,-4.384,-4.3577,-4.3576,-4.3575,0,0,-4.3042,-4.3077,-4.3169,-4.3208,-4.3264,-4.3277,-4.33,-4.3351,-4.3366,-4.3473,-4.3448,-4.3517,-4.3638,-4.3679,-4.3716,-4.388,-4.3856,-4.3902,-4.3984,-4.4057,-4.4075,-4.4092,-4.4151,-4.4172,-4.3915,-4.3915,-4.3915,0,-4.3105,-4.3217,-4.3218,-4.3303,-4.3345,-4.3318,-4.3412,-4.345,-4.3525,-4.3555,-4.352,-4.3675,-4.371,-4.3842,-4.3883,-4.3913,-4.394,-4.3894,-4.4072,-4.4089,-4.4105,-4.4161,-4.4183,-4.392,-4.3919,-4.3919,-4.3918,0,-4.3294,-4.3372,-4.344,-4.3515,-4.3565,-4.3654,-4.3669,-4.372,-4.3714,-4.3732,-4.3843,-4.3885,-4.3961,-4.3993,-4.3987,-4.4126,-4.4105,-4.4072,-4.4007,-4.4132,-4.4185,-4.4207,-4.3927,-4.3926,-4.3924,-4.3923,0,0,-4.3472,-4.3549,-4.3574,-4.3609,-4.3672,-4.3733,-4.3823,-4.3898,-4.3942,-4.3996,-4.4072,-4.4178,-4.4148,-4.419,-4.419,-4.4254,-4.4382,-4.4212,-4.4214,-4.4242,-4.4539,-4.4563,-4.4588,-4.4368,-4.4372,-4.4376,-4.4534,0,-4.3619,-4.3774,-4.378,-4.3923,-4.3996,-4.3974,-4.4053,-4.4101,-4.4121,-4.4187,-4.421,-4.4285,-4.424,-4.4265,-4.4327,-4.4353,-4.4441,-4.4342,-4.4439,-4.4442,-4.4424,-4.4615,-4.4641,-4.4788,-4.4555,-4.4559,-4.4561,0,-4.3809,-4.3871,-4.4022,-4.4077,-4.4108,-4.4178,-4.4249,-4.4313,-4.4368,-4.4379,-4.4428,-4.442,-4.4513,-4.4447,-4.4577,-4.4509,-4.455,-4.4569,-4.4575,-4.4583,-4.4508,-4.4628,-4.4835,-4.4857,-4.4594,-4.4591,-4.4589,0,-4.3925,-4.4046,-4.4152,-4.4183,-4.425,-4.43,-4.433,-4.4381,-4.4428,-4.4491,-4.4521,-4.4594,-4.4634,-4.4691,-4.4704,-4.4655,-4.4834,-4.4769,-4.4846,-4.4846,-4.4882,-4.488,-4.5098,-4.4911,-4.491,-4.491,-4.491,0,-4.4087,-4.418,-4.4205,-4.427,-4.4375,-4.4382,-4.4485,-4.4512,-4.4559,-4.463,-4.4617,-4.4684,-4.4696,-4.4767,-4.4778,-4.4884,-4.4903,-4.4914,-4.4916,-4.4915,-4.4913,-4.494,-4.493,-4.4916,-4.4915,-4.4913,-4.4912,0,-4.4232,-4.4252,-4.4367,-4.4422,-4.4439,-4.4513,-4.4561,-4.4625,-4.4645,-4.4736,-4.4757,-4.4789,-4.4872,-4.4891,-4.4989,-4.4997,-4.5123,-4.5115,-4.5104,-4.5103,-4.5179,-4.5172,-4.5422,-4.5455,-4.5246,-4.5248,-4.525,0,-4.4333,-4.4404,-4.4468,-4.4515,-4.4548,-4.4624,-4.4672,-4.4683,-4.4734,-4.4804,-4.486,-4.4942,-4.5007,-4.5141,-4.5174,-4.525,-4.5243,-4.5326,-4.5254,-4.5252,-4.5244,-4.5239,-4.5247,-4.5339,-4.5341,-4.5343,-4.5344,0,-4.4511,-4.4519,-4.4588,-4.4662,-4.472,-4.4778,-4.4834,-4.4874,-4.4894,-4.4952,-4.5037,-4.5088,-4.519,-4.5272,-4.5349,-4.5381,-4.5367,-4.5367,-4.5389,-4.5388,-4.5379,-4.5385,-4.514,-4.536,-4.5359,-4.5358,-4.5357,-4.5356,-4.4637,-4.47,-4.4756,-4.4834,-4.4878,-4.4932,-4.4995,-4.5025,-4.5096,-4.518,-4.5183,-4.5276,-4.5334,-4.5436,-4.5474,-4.5548,-4.5522,-4.5553,-4.5561,-4.5569,-4.5576,-4.5369,-4.5562,-4.5561,-4.5561,-4.5561,-4.556,0,-4.4814,-4.485,-4.4922,-4.5002,-4.5065,-4.5047,-4.511,-4.5163,-4.5245,-4.53,-4.5366,-4.5466,-4.5546,-4.5587,-4.5667,-4.5719,-4.5714,-4.5739,-4.5735,-4.5743,-4.5594,-4.5567,-4.5742,-4.5742,-4.5742,-4.5742,-4.5742,-4.5742,-4.4913,-4.5019,-4.5035,-4.5164,-4.52,-4.5291,-4.5329,-4.5379,-4.5423,-4.5535,-4.5602,-4.5629,-4.5679,-4.5763,-4.5837,-4.5847,-4.5877,-4.5906,-4.5912,-4.5772,-4.5753,-4.5735,-4.571,-4.5912,-4.5913,-4.6055,-4.6057,-4.6058]},{"header":{"parameterUnit":"m.s-1","parameterCategory":1,"la1":30.2991,"la2":30.254,"lo1":-89.0895,"lo2":-89.0444,"dy":0.0017,"dx":0.0017,"nx":28,"ny":28,"refTime":"2023-09-03T21:00:00:Z","depth":0,"parameterNumber":3,"parameterNumberName":"V-component_of_WINDS"},"data":[0,0,0,0,0,0,0,0,0,0,0,0,0,0,0,0,0,0,0,0,0,0,0,0,0,0,0,0,0,0,0,0,0,0,0,0,0,0,0,0,0,0,0,0,0,0,0,0,0,0,0,0,0,0,0,0,0,0,2.4481,2.4479,0,2.437,2.4369,2.4367,2.4355,2.4357,2.4358,2.4359,2.4234,2.423,2.4225,0,0,0,0,0,0,0,0,0,0,0,0,0,2.4673,2.467,2.4481,2.4479,2.4478,2.437,2.4369,2.4367,2.4355,2.4357,2.4358,2.4359,2.4236,2.423,2.4225,0,0,0,0,0,0,0,0,0,0,0,0,0,2.4578,2.4669,2.4481,2.4459,2.4456,2.437,2.4369,2.4367,2.4355,2.4357,2.4358,2.436,2.4237,2.4231,2.4224,2.4149,0,0,2.4204,2.4201,0,0,0,0,0,0,0,0,2.4584,2.4571,2.4464,2.4461,2.4457,2.4379,2.4391,2.4293,2.4355,2.4393,2.4359,2.4361,2.428,2.427,2.4245,2.4143,2.4138,2.4204,2.42,2.4197,2.4195,0,0,0,0,0,0,0,2.459,2.4576,2.4436,2.4462,2.4458,2.4452,2.4441,2.4372,2.4328,2.439,2.4389,2.4376,2.4278,2.4251,2.4242,2.4136,2.4204,2.4198,2.4194,2.4191,2.3967,2.3966,0,0,0,0,0,0,2.4602,2.4582,2.444,2.4433,2.4526,2.4448,2.4435,2.4402,2.4329,2.4319,2.4375,2.4376,2.4262,2.425,2.4238,2.4145,2.4197,2.4191,2.4187,2.3969,2.3967,2.3965,0,0,0,0,0,0,2.4607,2.459,2.4444,2.4507,2.4488,2.4442,2.4406,2.4399,2.4372,2.4318,2.4309,2.4356,2.4263,2.4247,2.4172,2.414,2.4188,2.4182,2.3972,2.3969,2.3966,2.3958,0,0,0,0,0,0,2.4612,2.4591,2.4564,2.4507,2.4485,2.4383,2.4404,2.4395,2.4362,2.4362,2.4298,2.4288,2.4263,2.4182,2.4166,2.4132,2.4176,2.3974,2.397,2.3967,2.3961,2.3955,2.395,0,0,0,0,0,2.4619,2.4563,2.4563,2.4546,2.445,2.4382,2.4369,2.4344,2.4359,2.433,2.4296,2.429,2.4147,2.4175,2.4156,2.412,2.3976,2.3972,2.3967,2.3963,2.3956,2.3951,0,0,0,0,0,0,2.4613,2.4555,2.4554,2.4479,2.4436,2.438,2.4342,2.4337,2.4285,2.4288,2.4256,2.4241,2.4168,2.4136,2.4168,2.4044,2.4063,2.4054,2.4066,2.4059,2.4054,2.4062,2.4171,0,0,0,0,0,2.4604,2.4556,2.4507,2.4445,2.4424,2.4387,2.4356,2.4342,2.4294,2.4274,2.4234,2.4186,2.413,2.4093,2.4039,2.3958,2.3943,2.3924,2.3919,2.3915,2.3906,2.3862,2.3852,2.395,2.395,2.395,0,0,2.4582,2.4545,2.4516,2.4443,2.4408,2.4357,2.4371,2.4316,2.4277,2.4264,2.4193,2.4162,2.4105,2.4028,2.3991,2.3999,2.3877,2.3909,2.3906,2.39,2.3856,2.3847,2.3839,2.3947,2.3948,2.3948,0,0,2.4517,2.4485,2.4431,2.4397,2.4345,2.4322,2.4309,2.4255,2.4235,2.4164,2.4154,2.4106,2.401,2.3971,2.3938,2.3863,2.3855,2.3846,2.3817,2.3773,2.3766,2.3759,2.3731,2.3721,2.3839,2.3839,2.3839,0,2.4495,2.4421,2.4402,2.4348,2.4316,2.4309,2.4252,2.4219,2.415,2.4127,2.4139,2.4021,2.3982,2.3895,2.3877,2.3852,2.3834,2.3851,2.3769,2.3762,2.3755,2.3728,2.3717,2.3838,2.3838,2.3838,2.3838,0,2.4397,2.4345,2.4307,2.4247,2.4211,2.4155,2.4126,2.4091,2.4081,2.4056,2.3983,2.3937,2.3874,2.3853,2.384,2.3764,2.3771,2.3776,2.3794,2.3745,2.3719,2.3708,2.3837,2.3837,2.3837,2.3837,0,0,2.432,2.4254,2.424,2.4213,2.4158,2.4116,2.4061,2.4004,2.3974,2.3928,2.3879,2.3801,2.3807,2.377,2.3753,2.3716,2.3659,2.3725,2.3723,2.3713,2.3571,2.3566,2.3555,2.3655,2.3653,2.3652,2.3576,0,2.4247,2.4152,2.4135,2.405,2.4002,2.3997,2.3948,2.3908,2.3884,2.3837,2.3809,2.3754,2.3766,2.3744,2.3707,2.3673,2.3629,2.3679,2.3606,2.3604,2.3618,2.3541,2.3535,2.3466,2.3566,2.3564,2.3563,0,2.4148,2.4105,2.4017,2.3972,2.395,2.3908,2.3855,2.3812,2.3765,2.375,2.3712,2.3701,2.3641,2.3665,2.3581,2.3615,2.3585,2.3565,2.3561,2.3551,2.3578,2.3527,2.3443,2.3432,2.3547,2.3548,2.3549,0,2.41,2.402,2.3957,2.3935,2.3879,2.3849,2.3824,2.3781,2.3748,2.3701,2.368,2.3625,2.3594,2.3551,2.3525,2.3545,2.3442,2.3464,2.3426,2.3426,2.3401,2.3403,2.3309,2.3386,2.3386,2.3386,2.3386,0,2.4019,2.3964,2.3935,2.3896,2.3835,2.3817,2.3756,2.3731,2.3693,2.3647,2.3638,2.3595,2.3564,2.3516,2.3495,2.3428,2.3414,2.3398,2.3393,2.3398,2.34,2.3375,2.3378,2.3383,2.3384,2.3385,2.3385,0,2.3952,2.3931,2.3862,2.3818,2.3806,2.3763,2.3723,2.3684,2.3662,2.3605,2.359,2.3553,2.3497,2.3468,2.3395,2.3381,2.3305,2.3304,2.3322,2.3319,2.3282,2.3285,2.3167,2.315,2.324,2.324,2.3239,0,2.3901,2.386,2.3813,2.3784,2.376,2.3713,2.3681,2.3662,2.3628,2.3575,2.3542,2.3486,2.344,2.3349,2.3314,2.3259,2.3255,2.3218,2.3246,2.3253,2.3252,2.3254,2.3249,2.3211,2.321,2.321,2.3209,0,2.3811,2.3804,2.3761,2.3714,2.3678,2.3639,2.3601,2.3577,2.3551,2.3513,2.3458,2.3423,2.3352,2.3296,2.3239,2.321,2.3204,2.3201,2.3189,2.3192,2.3204,2.3196,2.3306,2.3203,2.3203,2.3204,2.3204,2.3204,2.3749,2.3714,2.3676,2.3628,2.3599,2.3564,2.3526,2.3502,2.3457,2.34,2.3391,2.3332,2.3288,2.3212,2.3182,2.3133,2.3141,2.3123,2.3118,2.3114,2.3112,2.3215,2.3123,2.3123,2.3123,2.3123,2.3123,0,2.3658,2.3636,2.3593,2.3542,2.3504,2.3508,2.3467,2.3434,2.3383,2.3345,2.3302,2.3238,2.3185,2.3148,2.3093,2.3061,2.3057,2.3047,2.3048,2.3041,2.3109,2.3124,2.3052,2.3052,2.3052,2.3052,2.3052,2.3052,2.3606,2.3546,2.3535,2.346,2.3436,2.3382,2.3357,2.3325,2.3295,2.3226,2.3183,2.3161,2.3123,2.3066,2.3017,2.3007,2.2986,2.2976,2.2966,2.3029,2.3036,2.3043,2.3058,2.2972,2.2972,2.2902,2.2901,2.2901]}]]